• en France
  • Liste des pays
  • À 7 jours
  • Température de l'eau
  • Carte satellitaire
  • Carte météo
  • Widgets météo
  • user-avatar
    Se connecter

    Météo par heure à Artashat

    Ce jour, 14 Novembre, Mercredi

    Heure Température Précipitation Vent Pression Humidité
    00:00 +1°C° 0 mm 1 m/s 601 mmHg 68%
    01:00 +1°C° 0 mm 1 m/s 600 mmHg 69%
    02:00 +1°C° 0 mm 1 m/s 600 mmHg 69%
    03:00 +1°C° 0 mm 1 m/s 600 mmHg 70%
    04:00 +1°C° 0 mm 1 m/s 600 mmHg 70%
    05:00 0°C° 0 mm 1 m/s 600 mmHg 71%
    06:00 0°C° 0 mm 1 m/s 600 mmHg 71%
    07:00 +1°C° 0 mm 1 m/s 600 mmHg 68%
    08:00 +2°C° 0 mm 1 m/s 600 mmHg 64%
    09:00 +2°C° 0 mm 2 m/s 600 mmHg 61%
    10:00 +2°C° 0 mm 2 m/s 600 mmHg 59%
    11:00 +3°C° 0 mm 2 m/s 600 mmHg 56%
    12:00 +3°C° 0 mm 3 m/s 600 mmHg 54%
    13:00 +3°C° 0 mm 3 m/s 600 mmHg 54%
    14:00 +3°C° 0 mm 3 m/s 599 mmHg 55%
    15:00 +3°C° 0 mm 3 m/s 599 mmHg 55%
    16:00 +3°C° 0.1 mm 3 m/s 599 mmHg 58%
    17:00 +2°C° 0.1 mm 3 m/s 599 mmHg 61%
    18:00 +2°C° 0.1 mm 2 m/s 599 mmHg 65%
    19:00 +1°C° 0.1 mm 3 m/s 599 mmHg 66%
    20:00 +1°C° 0.1 mm 3 m/s 598 mmHg 67%
    21:00 +1°C° 0.1 mm 3 m/s 598 mmHg 68%
    22:00 +1°C° 0.1 mm 3 m/s 598 mmHg 68%
    23:00 +1°C° 0.1 mm 3 m/s 598 mmHg 69%

    Demain, 15 Novembre, Jeudi

    Heure Température Précipitation Vent Pression Humidité
    00:00 0°C° 0.1 mm 3 m/s 598 mmHg 70%
    01:00 0°C° 0.1 mm 3 m/s 598 mmHg 71%
    02:00 0°C° 0.1 mm 3 m/s 598 mmHg 71%
    03:00 0°C° 0.1 mm 3 m/s 597 mmHg 72%
    04:00 +1°C° 0.1 mm 2 m/s 597 mmHg 73%
    05:00 +1°C° 0.1 mm 2 m/s 597 mmHg 74%
    06:00 +1°C° 0.1 mm 2 m/s 597 mmHg 74%
    07:00 0°C° 0.1 mm 3 m/s 598 mmHg 71%
    08:00 +1°C° 0.1 mm 3 m/s 598 mmHg 68%
    09:00 +2°C° 0.1 mm 3 m/s 599 mmHg 65%
    10:00 +3°C° 0.1 mm 3 m/s 599 mmHg 62%
    11:00 +4°C° 0.1 mm 3 m/s 599 mmHg 60%
    12:00 +4°C° 0.1 mm 3 m/s 600 mmHg 58%
    13:00 +5°C° 0.2 mm 2 m/s 600 mmHg 59%
    14:00 +5°C° 0.2 mm 2 m/s 600 mmHg 59%
    15:00 +5°C° 0.2 mm 2 m/s 600 mmHg 60%
    16:00 +5°C° 0.4 mm 2 m/s 600 mmHg 63%
    17:00 +4°C° 0.4 mm 2 m/s 600 mmHg 66%
    18:00 +3°C° 0.4 mm 2 m/s 600 mmHg 69%
    19:00 +3°C° 0.3 mm 2 m/s 600 mmHg 70%
    20:00 +3°C° 0.3 mm 2 m/s 600 mmHg 71%
    21:00 +3°C° 0.3 mm 1 m/s 600 mmHg 72%
    22:00 +3°C° 0.1 mm 1 m/s 600 mmHg 73%
    23:00 +3°C° 0.1 mm 1 m/s 600 mmHg 73%

    Après-demain, 16 Novembre, Vendredi

    Heure Température Précipitation Vent Pression Humidité
    00:00 +3°C° 0.1 mm 1 m/s 600 mmHg 73%
    01:00 +3°C° 0.1 mm 1 m/s 600 mmHg 74%
    02:00 +2°C° 0.1 mm 1 m/s 600 mmHg 75%
    03:00 +2°C° 0.1 mm 1 m/s 599 mmHg 76%
    04:00 +2°C° 0.1 mm 1 m/s 599 mmHg 76%
    05:00 +2°C° 0.1 mm 1 m/s 600 mmHg 77%
    06:00 +2°C° 0.1 mm 1 m/s 600 mmHg 77%
    07:00 +3°C° 0.1 mm 1 m/s 600 mmHg 74%
    08:00 +3°C° 0.1 mm 1 m/s 601 mmHg 71%
    09:00 +4°C° 0.1 mm 1 m/s 601 mmHg 68%
    10:00 +5°C° 0 mm 1 m/s 601 mmHg 65%
    11:00 +5°C° 0 mm 2 m/s 602 mmHg 63%
    12:00 +6°C° 0 mm 2 m/s 602 mmHg 60%
    13:00 +6°C° 0 mm 2 m/s 602 mmHg 59%
    14:00 +6°C° 0 mm 2 m/s 602 mmHg 59%
    15:00 +6°C° 0 mm 2 m/s 602 mmHg 59%
    16:00 +5°C° 0 mm 2 m/s 601 mmHg 62%
    17:00 +5°C° 0 mm 2 m/s 601 mmHg 66%
    18:00 +5°C° 0 mm 1 m/s 601 mmHg 70%
    19:00 +5°C° 0 mm 1 m/s 601 mmHg 71%
    20:00 +4°C° 0 mm 1 m/s 601 mmHg 73%
    21:00 +4°C° 0 mm 1 m/s 601 mmHg 74%
    22:00 +4°C° 0 mm 1 m/s 601 mmHg 74%
    23:00 +4°C° 0 mm 1 m/s 601 mmHg 74%

    17 Novembre, Samedi

    Heure Température Précipitation Vent Pression Humidité
    00:00 +4°C° 0 mm 1 m/s 600 mmHg 74%
    01:00 +3°C° 0 mm 1 m/s 600 mmHg 73%
    02:00 +3°C° 0 mm 1 m/s 600 mmHg 73%
    03:00 +3°C° 0 mm 1 m/s 600 mmHg 73%
    04:00 +2°C° 0.1 mm 2 m/s 600 mmHg 73%
    05:00 +2°C° 0.1 mm 2 m/s 600 mmHg 73%
    06:00 +2°C° 0.1 mm 2 m/s 600 mmHg 73%
    07:00 +3°C° 0 mm 2 m/s 600 mmHg 70%
    08:00 +4°C° 0 mm 2 m/s 601 mmHg 66%
    09:00 +5°C° 0 mm 2 m/s 601 mmHg 62%
    10:00 +6°C° 0 mm 2 m/s 601 mmHg 59%
    11:00 +6°C° 0 mm 2 m/s 602 mmHg 56%
    12:00 +7°C° 0 mm 2 m/s 602 mmHg 53%
    13:00 +7°C° 0 mm 2 m/s 602 mmHg 52%
    14:00 +7°C° 0 mm 2 m/s 602 mmHg 51%
    15:00 +8°C° 0 mm 2 m/s 601 mmHg 49%
    16:00 +6°C° 0 mm 2 m/s 601 mmHg 54%
    17:00 +5°C° 0 mm 2 m/s 601 mmHg 59%
    18:00 +4°C° 0 mm 2 m/s 600 mmHg 63%
    19:00 +3°C° 0 mm 2 m/s 601 mmHg 64%
    20:00 +3°C° 0 mm 2 m/s 601 mmHg 65%
    21:00 +3°C° 0 mm 2 m/s 601 mmHg 66%
    22:00 +2°C° 0 mm 2 m/s 601 mmHg 67%
    23:00 +2°C° 0 mm 2 m/s 601 mmHg 68%

    18 Novembre, Dimanche

    Heure Température Précipitation Vent Pression Humidité
    00:00 +1°C° 0 mm 2 m/s 601 mmHg 69%
    01:00 +1°C° 0 mm 2 m/s 601 mmHg 69%
    02:00 +2°C° 0 mm 1 m/s 600 mmHg 69%
    03:00 +1°C° 0 mm 1 m/s 600 mmHg 70%
    04:00 +1°C° 0.1 mm 1 m/s 600 mmHg 70%
    05:00 +1°C° 0.1 mm 1 m/s 600 mmHg 69%
    06:00 +1°C° 0.1 mm 1 m/s 600 mmHg 69%
    07:00 +1°C° 0.3 mm 1 m/s 600 mmHg 68%
    08:00 +1°C° 0.3 mm 1 m/s 600 mmHg 67%
    09:00 +1°C° 0.3 mm 2 m/s 600 mmHg 66%
    10:00 +1°C° 0.4 mm 2 m/s 600 mmHg 66%
    11:00 +1°C° 0.4 mm 2 m/s 600 mmHg 66%
    12:00 +1°C° 0.4 mm 2 m/s 599 mmHg 65%
    13:00 +1°C° 0.2 mm 2 m/s 599 mmHg 63%
    14:00 +1°C° 0.2 mm 2 m/s 599 mmHg 60%
    15:00 +1°C° 0.2 mm 2 m/s 599 mmHg 58%
    16:00 -1°C° 0 mm 2 m/s 599 mmHg 59%
    17:00 -2°C° 0 mm 2 m/s 599 mmHg 60%
    18:00 -3°C° 0 mm 2 m/s 599 mmHg 62%
    19:00 -4°C° 0 mm 2 m/s 599 mmHg 61%
    20:00 -4°C° 0 mm 2 m/s 599 mmHg 61%
    21:00 -5°C° 0 mm 2 m/s 599 mmHg 61%
    22:00 -5°C° 0 mm 2 m/s 599 mmHg 60%
    23:00 -5°C° 0 mm 2 m/s 599 mmHg 60%

    19 Novembre, Lundi

    Heure Température Précipitation Vent Pression Humidité
    00:00 -4°C° 0 mm 1 m/s 599 mmHg 59%
    01:00 -4°C° 0 mm 1 m/s 599 mmHg 60%
    02:00 -4°C° 0 mm 1 m/s 599 mmHg 60%
    03:00 -4°C° 0 mm 1 m/s 599 mmHg 60%
    04:00 -4°C° 0 mm 1 m/s 599 mmHg 60%
    05:00 -4°C° 0 mm 1 m/s 599 mmHg 61%
    06:00 -6°C° 0 mm 1 m/s 599 mmHg 62%
    07:00 -3°C° 0 mm 1 m/s 600 mmHg 59%
    08:00 -2°C° 0 mm 1 m/s 600 mmHg 56%
    09:00 -1°C° 0 mm 1 m/s 601 mmHg 53%
    10:00 0°C° 0 mm 1 m/s 601 mmHg 51%
    11:00 +1°C° 0 mm 1 m/s 601 mmHg 49%
    12:00 +1°C° 0 mm 2 m/s 601 mmHg 47%
    13:00 +1°C° 0 mm 2 m/s 601 mmHg 46%
    14:00 +1°C° 0 mm 2 m/s 601 mmHg 46%
    15:00 +2°C° 0 mm 2 m/s 601 mmHg 46%
    16:00 -1°C° 0 mm 2 m/s 601 mmHg 49%
    17:00 -2°C° 0 mm 2 m/s 600 mmHg 53%
    18:00 -1°C° 0 mm 1 m/s 600 mmHg 56%
    19:00 -1°C° 0 mm 1 m/s 600 mmHg 55%
    20:00 -1°C° 0 mm 1 m/s 600 mmHg 53%
    21:00 -1°C° 0 mm 1 m/s 601 mmHg 52%
    22:00 -1°C° 0 mm 1 m/s 601 mmHg 52%
    23:00 -1°C° 0 mm 1 m/s 601 mmHg 52%
    Voir plus